Hourly Data Report for July 29, 2004

TORONTO CITY
ONTARIO

43°40'00.000" N
79°24'00.000" W
112.50 m
6158355
71508
XTO

Download Data

Hourly Data (July 2004)
Hourly Data Report for July 29, 2004
TIME
LST
Temp Definition
°C
Dew Point Definition
°C
Rel Hum Definition
%
Precip. Amount Definition
mm

Wind Dir Definition
10's deg

Wind Spd Definition
km/h
Visibility Definition
km
Stn Press Definition
kPa
Hmdx Definition


Wind Chill Definition


Weather Definition


00:00 18.3 17.9 98   LegendMM LegendMM LegendMM 100.31     LegendNANA
01:00 18.0 17.7 98   LegendMM LegendMM LegendMM 100.32     LegendNANA
02:00 17.5 17.2 98   LegendMM LegendMM LegendMM 100.29     LegendNANA
03:00 17.2 17.0 99   LegendMM LegendMM LegendMM 100.31     LegendNANA
04:00 16.6 16.4 99   LegendMM LegendMM LegendMM 100.34     LegendNANA
05:00 16.4 16.2 99   LegendMM LegendMM LegendMM 100.40     LegendNANA
06:00 16.7 16.6 99   LegendMM LegendMM LegendMM 100.45     LegendNANA
07:00 18.3 18.2 99   LegendMM LegendMM LegendMM 100.47     LegendNANA
08:00 21.4 18.8 85   LegendMM LegendMM LegendMM 100.51 28   LegendNANA
09:00 24.0 17.6 67   LegendMM LegendMM LegendMM 100.47 30   LegendNANA
10:00 25.0 18.5 67   LegendMM LegendMM LegendMM 100.49 31   LegendNANA
11:00 25.4 17.7 62   LegendMM LegendMM LegendMM 100.46 31   LegendNANA
12:00 25.9 19.4 67   LegendMM LegendMM LegendMM 100.46 33   LegendNANA
13:00 26.1 18.1 61   LegendMM LegendMM LegendMM 100.45 32   LegendNANA
14:00 26.9 16.4 53   LegendMM LegendMM LegendMM 100.41 32   LegendNANA
15:00 27.4 12.7 40   LegendMM LegendMM LegendMM 100.35 30   LegendNANA
16:00 26.4 16.7 55   LegendMM LegendMM LegendMM 100.35 31   LegendNANA
17:00 25.7 17.0 59   LegendMM LegendMM LegendMM 100.30 31   LegendNANA
18:00 24.0 19.4 75   LegendMM LegendMM LegendMM 100.29 31   LegendNANA
19:00 22.9 20.2 85   LegendMM LegendMM LegendMM 100.27 31   LegendNANA
20:00 22.2 19.8 86   LegendMM LegendMM LegendMM 100.29 30   LegendNANA
21:00 22.0 19.5 86   LegendMM LegendMM LegendMM 100.25 29   LegendNANA
22:00 21.9 18.9 83   LegendMM LegendMM LegendMM 100.32 29   LegendNANA
23:00 22.1 18.7 81   LegendMM LegendMM LegendMM 100.29 29   LegendNANA

Notes on Data Quality.

Legend

  • E = Estimated
  • M = Missing
  • NA = Not Available*
  • [empty] = Indicates an unobserved value
Date modified: